Regional Weather Roundup
Issued by NWS State College, PA

Home | Current Version | Previous Version | Graphics & Text | Print | Product List | Glossary Off
Versions: 1 2 3 4 5 6 7 8 9 10 11 12 13 14 15 16 17 18 19 20 21 22 23 24 25 26 27 28 29 30 31 32 33 34 35 36 37 38 39 40 41 42 43 44 45 46 47 48 49 50

000
ASUS41 KCTP 282103
RWRCTP

REGIONAL WEATHER ROUNDUP
NATIONAL WEATHER SERVICE STATE COLLEGE PA
500 PM EDT MON JUL 28 2014

Note: "fair" indicates few or no clouds below 12,000 feet with no
significant weather and/or obstructions to visibility.

* = STATION THAT DOES NOT REPORT PRECIPITATION /E.G. RAIN...SNOW...ETC/
    THUNDER OR FOG.

PAZ002>004-007>009-013>016-020>023-029>032-282200-
WESTERN PENNSYLVANIA

CITY           SKY/WX    TMP DP  RH WIND       PRES   REMARKS
ERIE           CLOUDY    68  53  58 NW12G17   29.82R
MEADVILLE      CLOUDY    63  57  81 NW8       29.85R
FRANKLIN*      CLOUDY    61  54  77 NW9       29.86R
NEW CASTLE       N/A     62  57  83 NW12G17   29.88R
BEAVER COUNTY  CLOUDY    63  57  82 NW12G17   29.87R
BUTLER*        CLOUDY    63  57  82 NW9G21    29.87R
PITTSBURGH INT CLOUDY    64  58  80 NW18      29.86R
PITTSBURGH     LGT RAIN  62  58  86 NW14G23   29.84R FOG
INDIANA*       CLOUDY    64  59  82 N9G20     29.84R
LATROBE        CLOUDY    64  64 100 W14       29.82R
WASHINGTON CO* CLOUDY    66  57  72 NW9G17    29.88R
$$

PAZ004>006-010>012-017>019-024>028-033>037-041-042-045-046-049>053-282200-
CENTRAL PENNSYLVANIA

CITY           SKY/WX    TMP DP  RH WIND       PRES   REMARKS
BRADFORD       LGT RAIN  57  55  93 NW13      29.80R
DUBOIS         CLOUDY    64  55  72 NW12G22   29.80R
CLEARFIELD     PTSUNNY   66  59  78 NW16G25   29.77R
JOHNSTOWN      HVY RAIN  60  59  96 NW12      29.81R FOG
ALTOONA        LGT RAIN  66  62  87 W12       29.76R
STATE COLLEGE  PTSUNNY   66  61  82 NW7       29.72R
WILLIAMSPORT   CLOUDY    72  62  71 NW10      29.66R
SELINSGROVE    LGT RAIN  66  63  90 CALM      29.68R FOG
FT INDIANTOWN  MOSUNNY   78  60  54 W13G20    29.65R
CAPITAL CITY   CLOUDY    77  59  53 W12       29.65R
HARRISBURG     PTSUNNY   78  60  53 W10       29.64R
YORK           MOSUNNY   78  59  51 W10G20    29.66R
$$

PAZ038>040-043-044-047-048-054-055-060>062-067>071-282200-
EASTERN PENNSYLVANIA

CITY           SKY/WX    TMP DP  RH WIND       PRES   REMARKS
SCRANTON       PTSUNNY   67  61  81 SW6       29.63R
MOUNT POCONO   LGT RAIN  60  57  89 W12       29.65R FOG
ALLENTOWN      CLOUDY    78  57  48 W15G24    29.60R
QUAKERTOWN*    MOCLDY    79  59  50 W10G22    29.62R
READING        PTSUNNY   78  58  49 W12G22    29.61R
LANCASTER      PTSUNNY   78  59  51 W21G28    29.64R
COATESVILLE    CLEAR     77  59  53 W18G24    29.65R
POTTSTOWN      MOSUNNY   79  58  48 W10G20    29.63R
BLUE BELL      MOSUNNY   81  61  50 W8G20     29.60S
DOYLESTOWN     MOSUNNY   80  57  45 W7G17     29.60R
WILLOW GROVE   NOT AVBL
NORTH PHILA    CLOUDY    80  56  43 W15G26    29.62R
PHILADELPHIA   PTSUNNY   83  58  42 W18       29.61R
$$



USA.gov is the U.S. government's official web portal to all federal, state and local government web resources and services.